Location: Brivio
(45.7333°N, 9.4500°E)
Time: 19:29:03
(UTC+00:00)

N. Korean satellite - Pass Details

Date: 19 December 2019
Orbit: 454 x 507 km, 97.2° (Epoch: 28 January)

Event Time Altitude Azimuth Distance (km) Brightness Sun altitude
Rises 04:18:13 0° 29° (NNE) 2,511 10.5 -26.9°
Reaches altitude 10° 04:20:56 10° 53° (NE) 1,619 9.8 -26.4°
Maximum altitude 04:23:06 16° 92° (E) 1,303 9.6 -26.1°
Drops below altitude 10° 04:25:14 10° 130° (SE) 1,599 9.9 -25.7°
Sets 04:27:53 0° 154° (SSE) 2,461 10.6 -25.2°
